Location: Stanford
(52.2833°N, 2.4333°W)
Time: 02:55:45
(UTC+00:00)

USA 234 - Pass Details

Date: 22 January 2021
Orbit: 1100 x 1107 km, 123.0° (Epoch: 23 February)

Event Time Altitude Azimuth Distance (km) Brightness Sun altitude
Exits shadow 20:45:53 54° 273° (W) 1,318 3.8 -37.1°
Drops below altitude 10° 20:50:58 10° 298° (WNW) 2,968 6.2 -37.9°
Sets 20:53:29 0° 300° (WNW) 3,929 7.1 -38.2°
